Regional Weather Roundup
Issued by NWS

Home | Current Version | Previous Version | Graphics & Text | Print | Product List | Glossary On
Versions: 1 2 3 4 5 6 7 8 9 10 11 12 13 14 15 16 17 18 19 20 21 22 23 24 25 26 27 28 29 30 31 32 33 34 35 36 37 38 39 40 41 42 43 44 45 46 47 48 49 50
579
ASUS44 KMEG 291300
RWRTN
TENNESSEE HOURLY STATE WEATHER ROUNDUP
NATIONAL WEATHER SERVICE MEMPHIS TN
800 AM CDT THU SEP 29 2016

TNZ002-004-019-021-049-052-054-088>092-291400-
WEST TENNESSEE

CITY           SKY/WX    TMP DP  RH WIND       PRES   REMARKS
MEMPHIS INTL   SUNNY     57  49  74 N14       30.15R
NWS MEMPHIS      N/A     54 N/A N/A MISG        N/A
JACKSON        SUNNY    N/A N/A N/A SW5       30.13R
DYERSBURG      SUNNY    N/A N/A N/A MISG        N/A
PARIS          SUNNY     48  46  93 NW5       30.10R
$$

TNZ008-025-027-028-033-062-065-066-291400-
NORTH MIDDLE TENNESSEE

CITY           SKY/WX    TMP DP  RH WIND       PRES   REMARKS
NASHVILLE      MOSUNNY   54  47  77 W7        30.08R
CLARKSVILLE    CLOUDY    51  48  89 W5        30.07R
SMYRNA         MOSUNNY   53  49  86 NW7       30.08S
COOKEVILLE     SUNNY     54  52  94 NW3       30.05R
CROSSVILLE     PTSUNNY   52  49  89 N7        30.04R
$$

TNZ061-075-076-078-094-096-097-291400-
SOUTH MIDDLE TENNESSEE

CITY           SKY/WX    TMP DP  RH WIND       PRES   REMARKS
SHELBYVILLE    SUNNY     52  48  87 W3        30.08S
$$

TNZ017-018-042-046-047-291400-
NORTHEAST TENNESSEE

CITY           SKY/WX    TMP DP  RH WIND       PRES   REMARKS
TRI CITIES     CLOUDY    57  53  86 CALM      29.99R
$$

TNZ012-013-036-069-073-074-291400-
CENTRAL EAST TENNESSEE

CITY           SKY/WX    TMP DP  RH WIND       PRES   REMARKS
KNOXVILLE      NOT AVBL
OAK RIDGE      CLOUDY    62  53  72 CALM      30.01R
GATLINBURG     CLOUDY    55  52  88 CALM      29.99R
$$

TNZ083-085-099-291400-
SOUTHEAST TENNESSEE

CITY           SKY/WX    TMP DP  RH WIND       PRES   REMARKS
CHATTANOOGA    MOSUNNY   60  50  69 N7        30.03R
$$

SKY/WX REPORTED AS FAIR MEANS FEW OR NO CLOUDS BELOW
12 THOUSAND FEET.





USA.gov is the U.S. government's official web portal to all federal, state and local government web resources and services.